<?xml version="1.0" encoding="UTF-8" standalone="no" ?><gpx xmlns="http://www.topografix.com/GPX/1/1" xmlns:gpxx="http://www.garmin.com/xmlschemas/GpxExtensions/v3" xmlns:wptx1="http://www.garmin.com/xmlschemas/WaypointExtension/v1" xmlns:gpxtpx="http://www.garmin.com/xmlschemas/TrackPointExtension/v1" creator="GuideVTT.com" version="1.1" xmlns:xsi="http://www.w3.org/2001/XMLSchema-instance" xsi:schemaLocation="http://www.topografix.com/GPX/1/1 http://www.topografix.com/GPX/1/1/gpx.xsd http://www.garmin.com/xmlschemas/GpxExtensions/v3 http://www8.garmin.com/xmlschemas/GpxExtensionsv3.xsd http://www.garmin.com/xmlschemas/WaypointExtension/v1 http://www8.garmin.com/xmlschemas/WaypointExtensionv1.xsd http://www.garmin.com/xmlschemas/TrackPointExtension/v1 http://www.garmin.com/xmlschemas/TrackPointExtensionv1.xsd">
<metadata><link href="http://www.garmin.com"><text>Garmin International</text></link><time>2013-06-22T15:13:50Z</time></metadata>
<trk><name>bex-bex.gpx</name><extensions><gpxx:TrackExtension><gpxx:DisplayColor>Cyan</gpxx:DisplayColor></gpxx:TrackExtension></extensions><trkseg>
<trkpt lat="46.24642533" lon="7.01228527"><ele>479.732696616</ele><time>2008-09-12T16:21:20Z</time></trkpt>
<trkpt lat="46.24625219" lon="7.01213054"><ele>480.7332458976</ele><time>2008-09-12T16:21:20Z</time></trkpt>
<trkpt lat="46.24569485" lon="7.01360149"><ele>484.7333984256</ele><time>2008-09-12T16:21:20Z</time></trkpt>
<trkpt lat="46.24546060" lon="7.01460162"><ele>485.7331543128</ele><time>2008-09-12T16:21:20Z</time></trkpt>
<trkpt lat="46.24475122" lon="7.02159341"><ele>497.7291566352</ele><time>2008-09-12T16:21:20Z</time></trkpt>
<trkpt lat="46.24499384" lon="7.02283854"><ele>504.7275694608</ele><time>2008-09-12T16:21:20Z</time></trkpt>
<trkpt lat="46.24702483" lon="7.02207510"><ele>497.72329716</ele><time>2008-09-12T16:21:20Z</time></trkpt>
<trkpt lat="46.24756579" lon="7.02225792"><ele>497.7218322912</ele><time>2008-09-12T16:21:20Z</time></trkpt>
<trkpt lat="46.24854145" lon="7.02253004"><ele>497.7192689232</ele><time>2008-09-12T16:21:20Z</time></trkpt>
<trkpt lat="46.24968065" lon="7.02068238"><ele>489.7180174632</ele><time>2008-09-12T16:21:20Z</time></trkpt>
<trkpt lat="46.25045930" lon="7.02045680"><ele>484.7163390744</ele><time>2008-09-12T16:21:20Z</time></trkpt>
<trkpt lat="46.25065720" lon="7.02151542"><ele>486.7149961896</ele><time>2008-09-12T16:21:20Z</time></trkpt>
<trkpt lat="46.25096400" lon="7.02241882"><ele>488.7135009048</ele><time>2008-09-12T16:21:20Z</time></trkpt>
<trkpt lat="46.25167871" lon="7.02260033"><ele>489.7116395232</ele><time>2008-09-12T16:21:20Z</time></trkpt>
<trkpt lat="46.25250297" lon="7.02312410"><ele>490.7092285872</ele><time>2008-09-12T16:21:20Z</time></trkpt>
<trkpt lat="46.25278715" lon="7.02402600"><ele>497.7078245976</ele><time>2008-09-12T16:21:20Z</time></trkpt>
<trkpt lat="46.25344172" lon="7.02533166"><ele>498.7051698216</ele><time>2008-09-12T16:21:20Z</time></trkpt>
<trkpt lat="46.25355366" lon="7.02632925"><ele>504.7040709048</ele><time>2008-09-12T16:21:20Z</time></trkpt>
<trkpt lat="46.25398872" lon="7.02716828"><ele>507.7023619872</ele><time>2008-09-12T16:21:20Z</time></trkpt>
<trkpt lat="46.25461808" lon="7.02744486"><ele>509.7006225576</ele><time>2008-09-12T16:21:20Z</time></trkpt>
<trkpt lat="46.25529334" lon="7.02856174"><ele>514.6980590448</ele><time>2008-09-12T16:21:20Z</time></trkpt>
<trkpt lat="46.25611820" lon="7.02958487"><ele>521.6952514512</ele><time>2008-09-12T16:21:20Z</time></trkpt>
<trkpt lat="46.25709736" lon="7.03082648"><ele>521.691894384</ele><time>2008-09-12T16:21:20Z</time></trkpt>
<trkpt lat="46.25804961" lon="7.03088109"><ele>530.689514184</ele><time>2008-09-12T16:21:20Z</time></trkpt>
<trkpt lat="46.25871970" lon="7.03090694"><ele>530.6878661304</ele><time>2008-09-12T16:21:20Z</time></trkpt>
<trkpt lat="46.25969445" lon="7.03093049"><ele>530.6855469072</ele><time>2008-09-12T16:21:20Z</time></trkpt>
<trkpt lat="46.26036274" lon="7.03045879"><ele>531.6843262152</ele><time>2008-09-12T16:21:20Z</time></trkpt>
<trkpt lat="46.26074917" lon="7.02970609"><ele>534.6839599416</ele><time>2008-09-12T16:21:20Z</time></trkpt>
<trkpt lat="46.26115945" lon="7.02929808"><ele>534.683349732</ele><time>2008-09-12T16:21:20Z</time></trkpt>
<trkpt lat="46.26137569" lon="7.02920208"><ele>536.6828612016</ele><time>2008-09-12T16:21:20Z</time></trkpt>
<trkpt lat="46.26161268" lon="7.02892062"><ele>542.6825562888</ele><time>2008-09-12T16:21:20Z</time></trkpt>
<trkpt lat="46.26297560" lon="7.02900298"><ele>555.6791993328</ele><time>2008-09-12T16:21:20Z</time></trkpt>
<trkpt lat="46.26282390" lon="7.02884799"><ele>560.6796874776</ele><time>2008-09-12T16:21:20Z</time></trkpt>
<trkpt lat="46.26226046" lon="7.02869782"><ele>555.6811524912</ele><time>2008-09-12T16:21:20Z</time></trkpt>
<trkpt lat="46.26182723" lon="7.02835793"><ele>561.6824950224</ele><time>2008-09-12T16:21:20Z</time></trkpt>
<trkpt lat="46.26141480" lon="7.02817232"><ele>568.6835937456</ele><time>2008-09-12T16:21:20Z</time></trkpt>
<trkpt lat="46.26208575" lon="7.02810547"><ele>568.6820679168</ele><time>2008-09-12T16:21:20Z</time></trkpt>
<trkpt lat="46.26245278" lon="7.02791567"><ele>570.6813355464</ele><time>2008-09-12T16:21:20Z</time></trkpt>
<trkpt lat="46.26271119" lon="7.02763232"><ele>574.6809083448</ele><time>2008-09-12T16:21:20Z</time></trkpt>
<trkpt lat="46.26337753" lon="7.02662865"><ele>570.6801757824</ele><time>2008-09-12T16:21:20Z</time></trkpt>
<trkpt lat="46.26480556" lon="7.02661780"><ele>561.676696812</ele><time>2008-09-12T16:21:20Z</time></trkpt>
<trkpt lat="46.26526095" lon="7.02683398"><ele>563.6754148872</ele><time>2008-09-12T16:21:20Z</time></trkpt>
<trkpt lat="46.26551912" lon="7.02648884"><ele>563.6751097824</ele><time>2008-09-12T16:21:20Z</time></trkpt>
<trkpt lat="46.26571143" lon="7.02570664"><ele>564.6752929992</ele><time>2008-09-12T16:21:20Z</time></trkpt>
<trkpt lat="46.26583932" lon="7.02520633"><ele>566.6753540232</ele><time>2008-09-12T16:21:20Z</time></trkpt>
<trkpt lat="46.26616134" lon="7.02442484"><ele>574.6752320544</ele><time>2008-09-12T16:21:20Z</time></trkpt>
<trkpt lat="46.26654645" lon="7.02332885"><ele>568.6751709024</ele><time>2008-09-12T16:21:20Z</time></trkpt>
<trkpt lat="46.26667445" lon="7.02286113"><ele>563.6752320072</ele><time>2008-09-12T16:21:20Z</time></trkpt>
<trkpt lat="46.26695483" lon="7.02273371"><ele>571.6746827088</ele><time>2008-09-12T16:21:20Z</time></trkpt>
<trkpt lat="46.26684884" lon="7.02335742"><ele>575.6744383872</ele><time>2008-09-12T16:21:20Z</time></trkpt>
<trkpt lat="46.26702431" lon="7.02382453"><ele>582.673644912</ele><time>2008-09-12T16:21:20Z</time></trkpt>
<trkpt lat="46.26724273" lon="7.02432221"><ele>589.6726685568</ele><time>2008-09-12T16:21:20Z</time></trkpt>
<trkpt lat="46.26752392" lon="7.02441444"><ele>594.6719359776</ele><time>2008-09-12T16:21:20Z</time></trkpt>
<trkpt lat="46.26756756" lon="7.02463204"><ele>597.6716309688</ele><time>2008-09-12T16:21:20Z</time></trkpt>
<trkpt lat="46.26872421" lon="7.02137823"><ele>603.671508936</ele><time>2008-09-12T16:21:20Z</time></trkpt>
<trkpt lat="46.26883088" lon="7.02093983"><ele>597.6716309688</ele><time>2008-09-12T16:21:20Z</time></trkpt>
<trkpt lat="46.26921818" lon="7.02043919"><ele>591.6710815272</ele><time>2008-09-12T16:21:20Z</time></trkpt>
<trkpt lat="46.26965111" lon="7.02037236"><ele>600.6701049312</ele><time>2008-09-12T16:21:20Z</time></trkpt>
<trkpt lat="46.26995446" lon="7.02033914"><ele>601.6693725288</ele><time>2008-09-12T16:21:20Z</time></trkpt>
<trkpt lat="46.27034440" lon="7.02055407"><ele>602.6682740616</ele><time>2008-09-12T16:21:20Z</time></trkpt>
<trkpt lat="46.27080027" lon="7.02089377"><ele>606.666869976</ele><time>2008-09-12T16:21:20Z</time></trkpt>
<trkpt lat="46.27116929" lon="7.02092182"><ele>606.6659546616</ele><time>2008-09-12T16:21:20Z</time></trkpt>
<trkpt lat="46.27153667" lon="7.02082632"><ele>608.6651610264</ele><time>2008-09-12T16:21:20Z</time></trkpt>
<trkpt lat="46.27183847" lon="7.02069872"><ele>611.6645509128</ele><time>2008-09-12T16:21:20Z</time></trkpt>
<trkpt lat="46.27203283" lon="7.02047928"><ele>611.6642455032</ele><time>2008-09-12T16:21:20Z</time></trkpt>
<trkpt lat="46.27227072" lon="7.02044655"><ele>609.6636961896</ele><time>2008-09-12T16:21:20Z</time></trkpt>
<trkpt lat="46.27253187" lon="7.02091133"><ele>617.6627198664</ele><time>2008-09-12T16:21:20Z</time></trkpt>
<trkpt lat="46.27287979" lon="7.02134627"><ele>614.6614990464</ele><time>2008-09-12T16:21:20Z</time></trkpt>
<trkpt lat="46.27311837" lon="7.02150060"><ele>610.6608277488</ele><time>2008-09-12T16:21:20Z</time></trkpt>
<trkpt lat="46.27359623" lon="7.02199633"><ele>619.6592406384</ele><time>2008-09-12T16:21:20Z</time></trkpt>
<trkpt lat="46.27405197" lon="7.02230518"><ele>624.6578978496</ele><time>2008-09-12T16:21:20Z</time></trkpt>
<trkpt lat="46.27442119" lon="7.02270736"><ele>632.6566773816</ele><time>2008-09-12T16:21:20Z</time></trkpt>
<trkpt lat="46.27466011" lon="7.02295438"><ele>623.6558836992</ele><time>2008-09-12T16:21:20Z</time></trkpt>
<trkpt lat="46.27487827" lon="7.02370269"><ele>642.6547851984</ele><time>2008-09-12T16:21:20Z</time></trkpt>
<trkpt lat="46.27524782" lon="7.02419928"><ele>634.6534422984</ele><time>2008-09-12T16:21:20Z</time></trkpt>
<trkpt lat="46.27559515" lon="7.02447638"><ele>627.65240484</ele><time>2008-09-12T16:21:20Z</time></trkpt>
<trkpt lat="46.27585560" lon="7.02475585"><ele>623.6515503576</ele><time>2008-09-12T16:21:20Z</time></trkpt>
<trkpt lat="46.27585801" lon="7.02541144"><ele>640.6510010424</ele><time>2008-09-12T16:21:20Z</time></trkpt>
<trkpt lat="46.27598944" lon="7.02587897"><ele>646.6503294552</ele><time>2008-09-12T16:21:20Z</time></trkpt>
<trkpt lat="46.27627135" lon="7.02584421"><ele>627.6496582872</ele><time>2008-09-12T16:21:20Z</time></trkpt>
<trkpt lat="46.27655186" lon="7.02574940"><ele>623.6490479496</ele><time>2008-09-12T16:21:20Z</time></trkpt>
<trkpt lat="46.27687674" lon="7.02574693"><ele>626.6482543464</ele><time>2008-09-12T16:21:20Z</time></trkpt>
<trkpt lat="46.27709470" lon="7.02611942"><ele>638.6474610312</ele><time>2008-09-12T16:21:20Z</time></trkpt>
<trkpt lat="46.27728844" lon="7.02605616"><ele>636.6470336376</ele><time>2008-09-12T16:21:20Z</time></trkpt>
<trkpt lat="46.27737531" lon="7.02605550"><ele>635.6467894608</ele><time>2008-09-12T16:21:20Z</time></trkpt>
<trkpt lat="46.27698400" lon="7.02546464"><ele>619.6482544272</ele><time>2008-09-12T16:21:20Z</time></trkpt>
<trkpt lat="46.27668054" lon="7.02546695"><ele>615.6489867336</ele><time>2008-09-12T16:21:20Z</time></trkpt>
<trkpt lat="46.27624856" lon="7.02547024"><ele>613.6500245136</ele><time>2008-09-12T16:21:20Z</time></trkpt>
<trkpt lat="46.27600965" lon="7.02522321"><ele>623.6508179232</ele><time>2008-09-12T16:21:20Z</time></trkpt>
<trkpt lat="46.27581162" lon="7.02444383"><ele>616.6519165032</ele><time>2008-09-12T16:21:20Z</time></trkpt>
<trkpt lat="46.27559343" lon="7.02400957"><ele>607.6527708744</ele><time>2008-09-12T16:21:20Z</time></trkpt>
<trkpt lat="46.27526717" lon="7.02363793"><ele>607.6538696784</ele><time>2008-09-12T16:21:20Z</time></trkpt>
<trkpt lat="46.27489681" lon="7.02292167"><ele>600.6553343232</ele><time>2008-09-12T16:21:20Z</time></trkpt>
<trkpt lat="46.27483036" lon="7.02233009"><ele>589.6560057504</ele><time>2008-09-12T16:21:20Z</time></trkpt>
<trkpt lat="46.27500245" lon="7.02220348"><ele>585.6557008224</ele><time>2008-09-12T16:21:20Z</time></trkpt>
<trkpt lat="46.27214658" lon="7.01651587"><ele>550.6672363824</ele><time>2008-09-12T16:21:20Z</time></trkpt>
<trkpt lat="46.26960711" lon="7.00867272"><ele>518.6797486176</ele><time>2008-09-12T16:21:20Z</time></trkpt>
<trkpt lat="46.26923295" lon="7.00699054"><ele>513.6820067208</ele><time>2008-09-12T16:21:20Z</time></trkpt>
<trkpt lat="46.26847429" lon="6.99548388"><ele>486.6931761672</ele><time>2008-09-12T16:21:20Z</time></trkpt>
<trkpt lat="46.26815676" lon="6.99161689"><ele>478.6970520528</ele><time>2008-09-12T16:21:20Z</time></trkpt>
<trkpt lat="46.26801701" lon="6.98909210"><ele>474.6994324128</ele><time>2008-09-12T16:21:20Z</time></trkpt>
<trkpt lat="46.26783903" lon="6.98803309"><ele>472.7007445128</ele><time>2008-09-12T16:21:20Z</time></trkpt>
<trkpt lat="46.26764019" lon="6.98681639"><ele>471.7022093496</ele><time>2008-09-12T16:21:20Z</time></trkpt>
<trkpt lat="46.26731144" lon="6.98585304"><ele>470.7037659312</ele><time>2008-09-12T16:21:20Z</time></trkpt>
<trkpt lat="46.26711175" lon="6.98473075"><ele>466.705169712</ele><time>2008-09-12T16:21:20Z</time></trkpt>
<trkpt lat="46.26665277" lon="6.98364324"><ele>464.7071532864</ele><time>2008-09-12T16:21:20Z</time></trkpt>
<trkpt lat="46.26638919" lon="6.98261588"><ele>462.7086180912</ele><time>2008-09-12T16:21:20Z</time></trkpt>
<trkpt lat="46.26608300" lon="6.98165067"><ele>460.7101441608</ele><time>2008-09-12T16:21:20Z</time></trkpt>
<trkpt lat="46.26542667" lon="6.98003466"><ele>457.7130433224</ele><time>2008-09-12T16:21:20Z</time></trkpt>
<trkpt lat="46.26523066" lon="6.97953698"><ele>456.7138976448</ele><time>2008-09-12T16:21:20Z</time></trkpt>
<trkpt lat="46.26477239" lon="6.97863658"><ele>454.7157288192</ele><time>2008-09-12T16:21:20Z</time></trkpt>
<trkpt lat="46.26204506" lon="6.97319829"><ele>443.7267149832</ele><time>2008-09-12T16:21:20Z</time></trkpt>
<trkpt lat="46.26023741" lon="6.97552319"><ele>443.7292173912</ele><time>2008-09-12T16:21:20Z</time></trkpt>
<trkpt lat="46.26179462" lon="6.98062642"><ele>450.7213135416</ele><time>2008-09-12T16:21:20Z</time></trkpt>
<trkpt lat="46.26069268" lon="6.98122766"><ele>449.7234803328</ele><time>2008-09-12T16:21:20Z</time></trkpt>
<trkpt lat="46.25642496" lon="6.98531766"><ele>448.7304687552</ele><time>2008-09-12T16:21:20Z</time></trkpt>
<trkpt lat="46.25645202" lon="6.98672254"><ele>450.7292785752</ele><time>2008-09-12T16:21:20Z</time></trkpt>
<trkpt lat="46.25544061" lon="6.98794732"><ele>450.730712964</ele><time>2008-09-12T16:21:20Z</time></trkpt>
<trkpt lat="46.25522838" lon="6.98904020"><ele>450.7303465944</ele><time>2008-09-12T16:21:20Z</time></trkpt>
<trkpt lat="46.25655989" lon="6.99199206"><ele>457.724761968</ele><time>2008-09-12T16:21:20Z</time></trkpt>
<trkpt lat="46.25583566" lon="6.99483736"><ele>459.7241819976</ele><time>2008-09-12T16:21:20Z</time></trkpt>
<trkpt lat="46.25523276" lon="6.99555941"><ele>459.7250671368</ele><time>2008-09-12T16:21:20Z</time></trkpt>
<trkpt lat="46.25541314" lon="6.99755489"><ele>462.7229918496</ele><time>2008-09-12T16:21:20Z</time></trkpt>
<trkpt lat="46.25698364" lon="7.00081729"><ele>468.7165833168</ele><time>2008-09-12T16:21:20Z</time></trkpt>
<trkpt lat="46.25618384" lon="7.00110339"><ele>467.7182618184</ele><time>2008-09-12T16:21:20Z</time></trkpt>
<trkpt lat="46.25430882" lon="7.00277402"><ele>466.7214356688</ele><time>2008-09-12T16:21:20Z</time></trkpt>
<trkpt lat="46.25332885" lon="7.00696093"><ele>469.7203979208</ele><time>2008-09-12T16:21:20Z</time></trkpt>
<trkpt lat="46.24933311" lon="7.00864636"><ele>469.728668364</ele><time>2008-09-12T16:21:20Z</time></trkpt>
<trkpt lat="46.24912033" lon="7.00964640"><ele>470.7283629864</ele><time>2008-09-12T16:21:20Z</time></trkpt>
<trkpt lat="46.24927549" lon="7.01070530"><ele>471.7271118144</ele><time>2008-09-12T16:21:20Z</time></trkpt>
<trkpt lat="46.24971445" lon="7.01223027"><ele>473.7248231352</ele><time>2008-09-12T16:21:20Z</time></trkpt>
<trkpt lat="46.24783372" lon="7.01274421"><ele>475.728942876</ele><time>2008-09-12T16:21:20Z</time></trkpt>
<trkpt lat="46.24703271" lon="7.01271963"><ele>477.7308960984</ele><time>2008-09-12T16:21:20Z</time></trkpt>
<trkpt lat="46.24692407" lon="7.01262613"><ele>477.7312316832</ele><time>2008-09-12T16:21:20Z</time></trkpt>
<trkpt lat="46.24670773" lon="7.01237911"><ele>478.7319336696</ele><time>2008-09-12T16:21:20Z</time></trkpt>
<trkpt lat="46.24657660" lon="7.01200620"><ele>478.7325743592</ele><time>2008-09-12T16:21:20Z</time></trkpt>
<trkpt lat="46.24648902" lon="7.01181821"><ele>478.7329407288</ele><time>2008-09-12T16:21:20Z</time></trkpt>
<trkpt lat="46.24636002" lon="7.01200791"><ele>479.7330931608</ele><time>2008-09-12T16:21:20Z</time></trkpt>
<trkpt lat="46.24618674" lon="7.01213277"><ele>481.7333983296</ele><time>2008-09-12T16:21:20Z</time></trkpt>
<trkpt lat="46.24649103" lon="7.01234994"><ele>479.7324829512</ele><time>2008-09-12T16:21:20Z</time></trkpt>
</trkseg></trk></gpx>